Location: Amsterdam
(30.7274°N, 84.4357°W)
Time: 23:55:37
(UTC+00:00)

Tiros 1 - Pass Details

Date: 18 February 2026
Orbit: 618 x 649 km, 48.4° (Epoch: 7 March)

Event Time Altitude Azimuth Distance (km) Brightness Sun altitude
Rises 11:26:59 0° 184° (S) 2,919 10.6 -11.1°
Reaches altitude 10° 11:30:21 10° 159° (SSE) 2,007 10.1 -10.4°
Maximum altitude 11:32:42 14° 128° (SE) 1,760 10.4 -9.9°
Drops below altitude 10° 11:35:02 10° 97° (E) 2,002 11.4 -9.4°
Sets 11:38:23 0° 72° (ENE) 2,905 11.8 -8.7°
